Regional Weather Roundup
Issued by NWS

Home | Current Version | Previous Version | Graphics & Text | Print | Product List | Glossary On
Versions: 1 2 3 4 5 6 7 8 9 10 11 12 13 14 15 16 17 18 19 20 21 22 23 24 25 26 27 28 29 30 31 32 33 34 35 36 37 38 39 40 41 42 43 44 45 46 47 48 49 50
325
ASUS45 KSLC 260310
RWRUT

UTAH REGIONAL WEATHER ROUNDUP
NATIONAL WEATHER SERVICE SALT LAKE CITY UT
900 PM MDT SAT MAR 25 2017

UTZ001>011-023>025-260400-

NORTHERN UTAH

CITY           SKY/WX    TMP DP  RH WIND       PRES   REMARKS
BRIGHAM CITY     N/A     43  38  84 SE5       30.03R
HILL AFB       MOCLDY    39  39 100 S5        30.02R
LOGAN          CLEAR     42  37  82 CALM      30.01R
OGDEN          CLEAR     38  37  97 S3        30.02R
SALT LAKE CITY MOCLDY    43  38  82 NW5       30.02R
WENDOVER       CLOUDY    47  38  71 CALM      30.02R
HEBER CITY     MIX PCPN  39  36  87 W6        29.98R WCI  35

$$

UTZ011>015-024>027-260400-

CENTRAL/NORTHEAST UTAH

CITY           SKY/WX    TMP DP  RH WIND       PRES   REMARKS
PROVO AIRPORT  LGT RAIN  42  38  85 NW9       30.03R
MOAB/CANYONLAN LGT RAIN  50  39  66 W5G18     29.85S
DELTA          CLOUDY    41  36  81 NE7       30.02R
PRICE          CLOUDY    43  32  65 NW9       29.92R
RICHFIELD      CLOUDY    43  41  93 CALM      30.02R
ROOSEVELT      CLOUDY    45  36  70 W9        29.92R
VERNAL         CLOUDY    47  39  74 E5        29.90R

$$

UTZ013>016-019>022-027-260400-

SOUTHERN UTAH

CITY           SKY/WX    TMP DP  RH WIND       PRES   REMARKS
BRYCE CANYON   CLOUDY    35  30  82 NW13      29.97R WCI  26
CEDAR CITY     CLOUDY    38  35  89 CALM      30.03R
MILFORD        CLOUDY    41  39  93 N6        30.03R
ST GEORGE      CLOUDY    54  40  59 W6        29.98R
HANKSVILLE     CLOUDY    50  37  62 NW8       29.89R
KANAB          CLEAR     45  36  70 S2        30.02R
BLANDING       CLOUDY    44  35  70 SE9       30.00S

$$

REGIONAL REPORTS     COLORADO/ARIZONA

CITY           SKY/WX    TMP DP  RH WIND       PRES   REMARKS
CRAIG, CO      CLOUDY    43  33  68 S5        29.91R
GRAND JUNCTION CLOUDY    50  41  71 E7        29.87S
RIFLE, CO      CLOUDY    48  35  60 NE7       29.92R
MONTROSE, CO   CLOUDY    50  30  46 W10       29.92R
CORTEZ, CO     LGT RAIN  40  38  93 W13       29.99R WCI  32
COLORADO CITY    N/A     45  39  81 W5        30.02R
PAGE, AZ       CLOUDY    53  39  59 W9G18     29.93R
GRAND CANYON   PTCLDY    43  27  53 W9G18     30.00R
KINGMAN, AZ    PTCLDY    54  25  32 NE7       29.96R
FLAGSTAFF, AZ  PTCLDY    34  31  88 SW8       30.01S WCI  27

$$

REGIONAL REPORTS    NEVADA/IDAHO/WYOMING

CITY           SKY/WX    TMP DP  RH WIND       PRES   REMARKS
LAS VEGAS, NV  PTCLDY    66  34  30 NE7       29.93R
ELY, NY        CLOUDY    37  33  85 NW3       30.05R
ELKO, NV       CLOUDY    44  30  57 SW3       30.02R
POCATELLO, ID  CLEAR     42  29  59 SW13      30.00R
BURLEY, ID     CLEAR     43  28  55 W9        30.00R
FORT BRIDGER,  LGT RAIN  35  35 100 NW14G20   30.00R WCI  26
EVANSTON, WY   FOG       33  30  88 N5        29.99R VSB 1/2 WCI  29
ROCK SPRINGS,  LGT RAIN  38  35  89 SW9       29.93S WCI  31
KEMMERER, WY     N/A     32  30  93 NW13      29.97R WCI  22

$$




USA.gov is the U.S. government's official web portal to all federal, state and local government web resources and services.